Aeroporto :
LOGIN :

Iscrizione | Disclaimer

   EN    FR    IT 

 










Sommario :    VFR   VFR Marginale   IFR   IFR Intensivo   IFR Molto Intensivo
Visibilità : 
Base nubi : 
>= 8 km
>= 3000ft
5 / 8 km
1000 / 3000 ft
1500m / 5 km
500 / 1000 ft
800 / 1500m
200 / 500 ft
< 800m
< 200 ft
Simboli :   Temporali  Nebbia  Neve Forte  Precipitazioni Forti  Vento > 20 kt
SIGMETs :   Varie  Temporali  Ghiacco  Turbolenza  Onda orograficha  Ceneri Vulcaniche






- Altitudine del aeroporto : 396 ft


LFOZ - Orléans St Denis

ULTIMO METAR :
  • 281130Z AUTO 23008KT 210V270 9999 BKN010 OVC014 10/08 Q1013

METARs OBSOLETI :
  • 281100Z AUTO 24007KT 9999 BKN009 BKN014 BKN032 10/08 Q1013
  • 281030Z AUTO 24008KT 220V280 9999 BKN009 BKN210 10/08 Q1014
  • 281000Z AUTO 25008KT 9999 OVC008 10/08 Q1014
  • 280930Z AUTO 25006KT 220V280 9999 OVC010 09/08 Q1014
  • 280900Z AUTO 26005KT 9999 SCT006 OVC013 09/08 Q1013
  • 280830Z AUTO 26005KT 9999 OVC006 09/08 Q1013

TAF N/A



MetMap, La meteo Aeronautica in un colpo d'occhio ! - Copyright ORBIFLY Dicembre 2007 - Disclaimer

ORBIFLY MET'MAP TEAM :

Programmazione e sviluppo : Alexandra Zaïnal
Concezione : Baudouin d'Aumeries
Supporto tecnico e logistico : Manuel Goepfert
Aiuto : Marc-Olivier Méhu
Aiuto per la traduzione : Arnaldo La Scala




FONTI E CREDITI :

   NOAA